Overview Statistics Trail Chart Weather Telemetry Raw packets
 

This is the latest recevied weather packets stored in our database for station/object LU4HH-15. If no packets are shown the sender has not sent any weather packets the latest 10 day(s).

<< 15 16 17 18 19 20 21 >>
Time Temp. Humidity Pressure Rain* Wind** Luminosity Snow
1788299533 17.78° C 55% 1026.3 hPa - - - -
1788298632 17.78° C 55% 1026.3 hPa - - - -
1788297731 17.78° C 55% 1026.3 hPa - - - -
1788296830 17.78° C 56% 1026.4 hPa - - - -
1788295929 17.78° C 56% 1026.5 hPa - - - -
1788295028 17.78° C 56% 1026.4 hPa - - - -
1788294127 19.44° C 53% 1026.4 hPa - - - -
1788292278 17.78° C 57% 1026.2 hPa - - - -
1788291376 17.78° C 57% 1026.4 hPa - - - -
1788290487 17.78° C 58% 1026.5 hPa - - - -
1788289575 18.33° C 58% 1026.6 hPa - - - -
1788288674 18.33° C 58% 1026.5 hPa - - - -
1788287772 18.33° C 58% 1026.7 hPa - - - -
1788286871 18.89° C 58% 1026.7 hPa - - - -
1788285970 18.89° C 57% 1027 hPa - - - -
1788285064 18.89° C 58% 1027.3 hPa - - - -
1788284163 18.89° C 57% 1027.5 hPa - - - -
1788283262 18.89° C 57% 1027.8 hPa - - - -
1788282361 18.33° C 58% 1028 hPa - - - -
1788281460 18.33° C 57% 1028.3 hPa - - - -
1788280558 18.33° C 57% 1028.6 hPa - - - -
1788279658 17.78° C 57% 1028.7 hPa - - - -
1788278757 17.78° C 58% 1028.9 hPa - - - -
1788277856 17.22° C 58% 1029.2 hPa - - - -
1788276954 17.22° C 58% 1029.3 hPa - - - -

* Rain since midnight (hover to see other rain measurements)
** Current wind speed in m/s (hover to see current wind gust speed)